TimeMDT,TemperatureF,Dew PointF,Humidity,Sea Level PressureIn,VisibilityMPH,Wind Direction,Wind SpeedMPH,Gust SpeedMPH,PrecipitationIn,Events,Conditions,WindDirDegrees,DateUTC
12:15 AM,35.6,28.4,75,30.02,10.0,Calm,Calm,-,N/A,,Clear,0,2012-10-20 06:15:00
12:35 AM,33.8,28.4,81,30.01,10.0,Calm,Calm,-,N/A,,Scattered Clouds,0,2012-10-20 06:35:00
12:55 AM,33.8,28.4,81,30.01,10.0,Calm,Calm,-,N/A,,Scattered Clouds,0,2012-10-20 06:55:00
1:15 AM,35.6,28.4,75,30.00,10.0,Calm,Calm,-,N/A,,Scattered Clouds,0,2012-10-20 07:15:00
1:35 AM,33.8,28.4,81,30.00,10.0,Calm,Calm,-,N/A,,Mostly Cloudy,0,2012-10-20 07:35:00
1:55 AM,32.0,28.4,87,30.00,10.0,Calm,Calm,-,N/A,,Scattered Clouds,0,2012-10-20 07:55:00
2:15 AM,32.0,28.4,87,29.99,10.0,Calm,Calm,-,N/A,,Clear,0,2012-10-20 08:15:00
2:35 AM,33.8,28.4,81,29.99,10.0,Calm,Calm,-,N/A,,Clear,0,2012-10-20 08:35:00
2:55 AM,32.0,26.6,80,29.99,10.0,Calm,Calm,-,N/A,,Clear,0,2012-10-20 08:55:00
3:15 AM,32.0,26.6,80,29.97,10.0,Calm,Calm,-,N/A,,Clear,0,2012-10-20 09:15:00
3:35 AM,32.0,28.4,87,29.97,10.0,Calm,Calm,-,N/A,,Clear,0,2012-10-20 09:35:00
3:55 AM,32.0,28.4,87,29.96,10.0,Calm,Calm,-,N/A,,Clear,0,2012-10-20 09:55:00
4:15 AM,33.8,30.2,87,29.95,10.0,Calm,Calm,-,N/A,,Clear,0,2012-10-20 10:15:00
4:35 AM,32.0,28.4,87,29.95,10.0,Calm,Calm,-,N/A,,Clear,0,2012-10-20 10:35:00
4:55 AM,33.8,30.2,87,29.95,10.0,Calm,Calm,-,N/A,,Clear,0,2012-10-20 10:55:00
5:15 AM,32.0,28.4,87,29.95,10.0,Calm,Calm,-,N/A,,Clear,0,2012-10-20 11:15:00
5:35 AM,32.0,28.4,87,29.95,10.0,Calm,Calm,-,N/A,,Clear,0,2012-10-20 11:35:00
5:55 AM,32.0,28.4,87,29.95,10.0,Calm,Calm,-,N/A,,Mostly Cloudy,0,2012-10-20 11:55:00
6:15 AM,32.0,30.2,93,29.95,10.0,Calm,Calm,-,N/A,,Overcast,0,2012-10-20 12:15:00
6:35 AM,32.0,30.2,93,29.95,10.0,Calm,Calm,-,N/A,,Overcast,0,2012-10-20 12:35:00
6:55 AM,33.8,32.0,93,29.95,10.0,Calm,Calm,-,N/A,,Overcast,0,2012-10-20 12:55:00
7:15 AM,33.8,32.0,93,29.94,10.0,Calm,Calm,-,N/A,,Overcast,0,2012-10-20 13:15:00
7:35 AM,33.8,30.2,87,29.93,10.0,Calm,Calm,-,N/A,,Overcast,0,2012-10-20 13:35:00
7:55 AM,33.8,30.2,87,29.93,10.0,Calm,Calm,-,N/A,,Mostly Cloudy,0,2012-10-20 13:55:00
8:15 AM,33.8,30.2,87,29.93,10.0,Calm,Calm,-,N/A,,Scattered Clouds,0,2012-10-20 14:15:00
8:35 AM,35.6,32.0,87,29.93,10.0,Calm,Calm,-,N/A,,Scattered Clouds,0,2012-10-20 14:35:00
8:55 AM,39.2,32.0,75,29.92,10.0,Calm,Calm,-,N/A,,Clear,0,2012-10-20 14:55:00
9:15 AM,42.8,32.0,66,29.92,10.0,Calm,Calm,-,N/A,,Clear,0,2012-10-20 15:15:00
9:35 AM,44.6,32.0,61,29.92,10.0,Calm,Calm,-,N/A,,Clear,0,2012-10-20 15:35:00
9:55 AM,46.4,32.0,57,29.91,10.0,Calm,Calm,-,N/A,,Clear,0,2012-10-20 15:55:00
10:15 AM,48.2,32.0,54,29.90,10.0,Calm,Calm,-,N/A,,Clear,0,2012-10-20 16:15:00
10:35 AM,51.8,33.8,50,29.90,10.0,Calm,Calm,-,N/A,,Clear,0,2012-10-20 16:35:00
10:55 AM,53.6,33.8,47,29.89,10.0,Calm,Calm,-,N/A,,Clear,0,2012-10-20 16:55:00
11:15 AM,55.4,33.8,44,29.88,10.0,Calm,Calm,-,N/A,,Clear,0,2012-10-20 17:15:00
11:35 AM,60.8,32.0,34,29.87,10.0,Calm,Calm,-,N/A,,Scattered Clouds,0,2012-10-20 17:35:00
11:55 AM,69.8,28.4,21,29.85,10.0,WSW,12.7,19.6,N/A,,Scattered Clouds,240,2012-10-20 17:55:00
12:15 PM,71.6,24.8,17,29.84,10.0,SW,18.4,24.2,N/A,,Scattered Clouds,220,2012-10-20 18:15:00
12:35 PM,71.6,24.8,17,29.84,10.0,SW,15.0,21.9,N/A,,Scattered Clouds,220,2012-10-20 18:35:00
12:55 PM,69.8,24.8,18,29.82,10.0,SSW,15.0,20.7,N/A,,Clear,210,2012-10-20 18:55:00
1:15 PM,71.6,23.0,16,29.81,10.0,SSW,17.3,-,N/A,,Clear,210,2012-10-20 19:15:00
1:35 PM,69.8,23.0,17,29.80,10.0,SSW,15.0,27.6,N/A,,Clear,200,2012-10-20 19:35:00
1:55 PM,66.2,23.0,19,29.80,10.0,SW,18.4,26.5,N/A,,Clear,220,2012-10-20 19:55:00
2:15 PM,68.0,23.0,18,29.78,10.0,SW,18.4,26.5,N/A,,Mostly Cloudy,220,2012-10-20 20:15:00
2:35 PM,68.0,23.0,18,29.78,10.0,WSW,17.3,24.2,N/A,,Scattered Clouds,240,2012-10-20 20:35:00
2:55 PM,68.0,23.0,18,29.77,10.0,SW,17.3,25.3,N/A,,Mostly Cloudy,230,2012-10-20 20:55:00
3:15 PM,68.0,23.0,18,29.77,10.0,SW,15.0,21.9,N/A,,Overcast,230,2012-10-20 21:15:00
3:35 PM,68.0,24.8,20,29.77,10.0,SW,11.5,26.5,N/A,,Mostly Cloudy,230,2012-10-20 21:35:00
3:55 PM,71.6,23.0,16,29.76,10.0,SW,15.0,24.2,N/A,,Mostly Cloudy,230,2012-10-20 21:55:00
4:15 PM,71.6,24.8,17,29.76,10.0,SW,18.4,23.0,N/A,,Scattered Clouds,230,2012-10-20 22:15:00
4:35 PM,71.6,23.0,16,29.75,10.0,SW,23.0,27.6,N/A,,Clear,220,2012-10-20 22:35:00
4:55 PM,71.6,23.0,16,29.75,10.0,SW,13.8,28.8,N/A,,Clear,220,2012-10-20 22:55:00
5:15 PM,69.8,23.0,17,29.74,10.0,SW,20.7,28.8,N/A,,Clear,230,2012-10-20 23:15:00
5:35 PM,69.8,23.0,17,29.74,10.0,SSW,18.4,28.8,N/A,,Clear,210,2012-10-20 23:35:00
5:55 PM,69.8,23.0,17,29.74,10.0,SW,12.7,26.5,N/A,,Clear,220,2012-10-20 23:55:00
6:15 PM,68.0,23.0,18,29.74,10.0,SW,8.1,-,N/A,,Clear,220,2012-10-21 00:15:00
6:35 PM,64.4,23.0,21,29.74,10.0,SW,6.9,-,N/A,,Clear,230,2012-10-21 00:35:00
6:55 PM,64.4,23.0,21,29.74,10.0,SSW,6.9,-,N/A,,Clear,200,2012-10-21 00:55:00
7:15 PM,64.4,23.0,21,29.73,10.0,South,9.2,-,N/A,,Clear,190,2012-10-21 01:15:00
7:35 PM,64.4,23.0,21,29.72,10.0,South,5.8,-,N/A,,Clear,190,2012-10-21 01:35:00
7:55 PM,60.8,23.0,23,29.73,10.0,Calm,Calm,-,N/A,,Clear,0,2012-10-21 01:55:00
8:15 PM,57.2,24.8,29,29.73,10.0,Calm,Calm,-,N/A,,Clear,0,2012-10-21 02:15:00
8:35 PM,53.6,26.6,35,29.72,10.0,South,6.9,-,N/A,,Clear,190,2012-10-21 02:35:00
8:55 PM,53.6,26.6,35,29.73,10.0,NNW,3.5,-,N/A,,Clear,340,2012-10-21 02:55:00
9:15 PM,50.0,28.4,43,29.73,10.0,North,3.5,-,N/A,,Clear,350,2012-10-21 03:15:00
9:35 PM,50.0,28.4,43,29.74,10.0,Calm,Calm,-,N/A,,Clear,0,2012-10-21 03:35:00
9:55 PM,55.4,24.8,31,29.75,10.0,SW,16.1,24.2,N/A,,Clear,230,2012-10-21 03:55:00
10:35 PM,64.4,21.2,19,29.76,10.0,SW,20.7,36.8,N/A,,Clear,230,2012-10-21 04:35:00
10:55 PM,62.6,21.2,20,29.77,10.0,SW,16.1,31.1,N/A,,Clear,220,2012-10-21 04:55:00
11:35 PM,60.8,23.0,23,29.78,10.0,WSW,18.4,26.5,N/A,,Clear,240,2012-10-21 05:35:00